Theta_e
316 316 317 317 317 318 318 319 319 318 318 319 319 319 320 321 321 321 321 321 322 323 323 323 324 325 325 326 326 325 324 327 319 313 312 320 330 337 339 340 340 339 334 321 316 312 310 311 310 311 312 313 313 313 312 315 313 312 306 302 298 300 298 303 301 303 305 303 304 305 305 304 303 306 306 307 306 306 307 305 305 307 306 307 306 308 308 309
315 316 316 316 316 317 317 318 318 318 317 318 318 319 319 320 321 321 321 321 322 323 323 323 324 325 325 325 325 324 323 327 313 314 319 329 337 339 339 338 339 337 329 316 312 310 309 309 309 310 309 308 314 308 313 311 314 308 303 301 300 301 302 305 306 305 305 304 305 305 305 304 304 304 307 303 304 305 305 304 306 304 305 306 307 307 307 308
315 315 315 315 315 316 316 317 318 317 318 318 318 319 319 319 320 321 321 322 322 323 323 323 324 325 325 325 324 323 324 321 313 312 320 332 337 339 339 337 334 333 319 314 313 312 311 310 310 309 308 307 308 307 311 308 310 307 306 301 301 304 303 305 306 305 306 306 304 304 304 303 305 305 307 303 304 305 304 303 303 304 304 305 305 306 307 308
315 315 315 315 315 316 316 316 317 317 317 318 318 318 319 320 320 321 322 322 322 322 323 323 324 324 325 324 325 324 329 318 307 313 323 333 337 340 337 330 325 324 319 314 314 314 312 311 310 310 307 306 306 308 307 308 308 308 306 302 302 303 302 303 305 306 305 305 305 303 304 303 305 306 305 304 302 304 303 303 303 303 303 304 304 305 306 306
316 315 315 314 315 316 316 316 316 317 317 317 318 319 318 320 320 320 321 322 322 322 323 323 324 324 324 325 323 326 320 304 308 316 325 333 336 338 334 330 328 321 317 314 315 313 313 311 309 308 307 304 306 306 305 308 307 308 304 305 304 303 304 305 305 306 305 305 304 304 302 303 306 305 304 304 301 302 302 302 303 303 302 303 302 304 305 305
315 315 314 315 315 315 316 316 316 317 318 317 318 318 319 320 321 321 321 321 322 322 323 323 323 324 324 324 324 326 315 295 310 319 329 331 336 330 329 324 325 317 315 314 313 311 310 309 308 306 305 305 304 303 305 307 307 303 304 305 305 305 304 305 305 305 304 303 303 302 304 305 303 303 305 304 303 302 302 302 302 302 302 303 304 304 304 304
315 315 315 315 314 314 315 316 316 317 317 318 318 319 319 321 321 321 321 321 322 323 322 323 323 323 323 320 327 317 308 307 312 322 327 329 330 328 323 327 326 317 315 313 311 311 309 308 306 305 305 305 304 304 304 305 308 305 303 304 304 305 304 305 305 304 304 303 303 305 304 302 303 300 304 302 302 302 302 302 302 302 303 303 302 303 303 303
316 315 315 315 314 314 314 316 316 316 317 318 318 319 320 321 321 321 321 321 322 322 322 322 322 323 321 329 320 314 309 306 318 325 324 325 324 320 321 319 317 317 314 312 311 309 308 306 305 306 305 303 304 304 304 304 305 304 303 304 304 303 305 305 305 304 304 304 305 303 301 302 304 303 302 301 301 302 302 302 302 302 302 302 302 302 302 303
316 315 315 316 314 314 314 314 315 316 317 318 318 319 320 320 321 321 321 321 322 321 322 322 322 320 319 321 313 305 304 319 322 325 328 321 320 316 319 316 316 314 312 311 311 311 308 307 306 306 303 303 305 303 303 303 302 304 303 304 304 303 305 305 304 304 304 304 304 301 301 304 304 304 301 301 302 302 302 301 301 302 301 301 301 301 301 302
316 315 316 316 315 315 314 314 315 315 317 318 318 319 320 320 321 321 321 321 321 321 321 322 322 320 319 318 313 300 314 318 325 326 324 317 317 316 315 319 314 313 311 311 311 310 308 309 308 308 308 305 305 304 304 303 302 304 303 304 303 305 304 305 303 305 304 303 303 301 302 302 302 301 298 300 302 302 301 301 301 301 300 300 300 301 301 301
316 315 315 315 316 316 315 315 315 316 317 318 318 319 320 320 321 321 321 321 321 321 322 322 321 319 323 313 306 302 321 326 325 323 318 316 314 314 315 316 315 313 312 312 310 311 311 310 311 309 307 305 305 303 304 303 304 304 303 303 303 304 305 305 304 303 304 302 303 302 302 302 301 299 300 299 302 302 301 300 300 300 300 300 300 300 301 301
316 316 316 316 316 316 316 316 315 315 317 317 318 319 320 320 321 321 321 321 321 321 322 320 319 319 315 312 307 309 314 325 326 320 317 317 317 317 318 315 314 317 313 311 312 314 314 312 311 307 303 308 303 304 303 304 304 303 303 300 303 305 303 305 303 303 302 301 301 303 301 298 298 299 300 301 301 301 301 300 300 300 300 300 300 300 301 301
316 316 316 317 317 317 317 316 316 315 316 317 318 319 320 320 321 321 321 321 321 321 321 319 317 323 318 306 309 314 319 323 320 317 317 319 316 316 315 317 316 313 315 314 313 315 313 313 311 307 308 306 305 301 303 305 303 303 303 301 301 302 302 304 303 302 301 301 302 302 294 299 299 300 299 301 301 301 301 300 300 300 300 299 299 300 300 300
316 316 316 317 317 319 318 316 316 316 316 317 318 319 320 320 321 321 321 319 321 320 321 320 321 319 312 306 310 317 321 321 318 316 316 318 317 317 316 317 316 315 318 315 314 314 312 311 311 308 309 306 303 305 303 303 303 300 302 302 298 298 299 302 303 302 301 300 301 302 295 299 299 299 301 301 301 301 300 301 300 300 299 299 299 299 300 300
316 316 316 317 318 319 318 317 316 316 316 317 319 320 320 320 321 320 320 320 321 319 318 320 325 318 307 308 313 322 324 321 315 317 319 315 315 314 313 314 313 314 314 314 313 311 312 313 311 306 304 305 306 303 301 302 302 302 298 297 301 298 300 301 303 302 300 299 302 300 296 299 299 300 300 301 300 301 300 301 300 300 299 298 299 299 299 299
317 316 317 317 317 318 317 316 316 316 317 317 319 320 321 320 319 319 320 321 321 320 322 321 317 313 308 306 313 322 320 312 314 320 318 316 320 314 315 313 313 312 312 310 312 311 312 312 307 306 304 304 302 301 301 300 301 301 298 297 298 300 300 300 300 302 301 301 301 300 297 300 298 300 300 301 301 300 300 301 300 299 298 298 298 298 299 299
317 316 317 317 317 318 317 316 316 316 316 318 319 320 321 319 318 318 320 319 320 320 322 314 312 312 303 311 314 310 310 315 316 318 315 317 316 315 313 312 310 310 311 310 312 312 310 307 305 305 306 303 304 302 297 297 297 299 301 297 300 298 300 298 299 302 302 301 299 301 298 299 300 300 300 300 301 300 300 300 299 299 298 298 298 298 299 299
317 317 317 318 318 318 317 316 315 316 317 318 318 320 320 319 320 320 322 320 323 319 318 315 313 312 307 308 305 307 314 312 317 315 316 314 316 313 312 309 309 310 309 307 309 307 308 304 304 301 303 301 301 300 295 292 297 298 299 298 298 299 299 298 298 300 301 300 299 301 299 300 300 300 299 300 300 300 300 300 299 299 298 298 298 298 298 298
318 317 317 317 318 318 317 316 316 316 317 319 321 320 319 319 320 322 318 317 313 308 304 305 306 298 297 307 309 310 314 313 315 315 311 313 313 314 313 312 311 307 305 303 304 305 306 305 304 300 298 299 298 299 299 300 301 299 299 298 299 297 298 298 301 300 301 299 299 299 298 300 302 299 300 299 299 299 300 300 298 298 298 298 297 298 298 298
318 318 317 317 319 319 317 317 316 317 318 318 320 319 319 314 314 309 314 314 310 309 311 311 310 309 306 308 309 310 314 316 310 314 314 313 312 310 310 310 310 308 304 301 303 304 307 299 297 296 299 301 302 302 302 302 301 300 300 299 297 298 299 301 300 300 301 298 299 300 300 301 302 302 299 299 299 299 299 298 298 298 297 297 297 297 297 297
318 318 318 318 318 319 318 317 317 317 318 320 319 316 307 306 303 300 309 310 312 312 311 311 311 309 308 312 311 308 307 307 311 311 312 314 313 309 305 307 304 301 303 304 304 303 303 298 298 301 302 303 303 303 303 301 300 299 298 298 297 299 296 301 300 298 301 298 298 301 300 300 301 303 301 299 298 297 298 298 298 298 297 297 297 297 297 296
318 318 318 318 318 319 319 318 317 318 319 319 317 312 314 314 314 312 311 305 312 313 313 313 311 309 310 311 313 313 312 307 306 311 313 312 309 305 305 304 302 299 304 303 302 299 297 296 300 303 305 303 302 302 302 300 299 299 297 298 297 297 300 302 299 299 299 297 296 299 298 299 301 303 300 298 298 299 300 300 299 298 297 296 297 297 296 296
318 319 318 319 318 319 318 318 317 318 318 315 314 314 314 318 318 318 315 310 307 314 312 311 309 308 308 310 310 310 305 304 304 309 309 311 307 306 306 301 301 302 302 301 298 298 295 298 302 305 303 302 300 300 300 299 299 298 297 295 294 299 298 295 298 297 298 297 297 298 296 298 301 303 298 299 299 299 297 296 297 297 297 296 296 297 296 296
319 319 319 319 319 319 319 318 318 317 315 316 315 315 321 317 317 316 312 304 303 310 310 312 311 310 308 306 311 308 305 306 307 306 312 309 305 307 305 303 301 301 299 300 300 299 298 302 304 304 302 301 299 299 298 297 296 299 299 298 297 298 299 297 298 297 298 298 298 297 295 296 299 299 297 296 296 295 294 295 295 296 297 298 297 297 297 296
319 319 319 320 319 319 318 318 314 313 317 316 315 319 322 324 320 317 310 304 304 305 316 313 314 313 312 315 313 306 307 308 308 312 311 309 306 304 303 306 303 299 301 301 300 299 300 302 303 301 301 300 300 297 298 299 296 298 300 298 299 300 298 299 300 296 296 296 297 296 290 293 300 301 300 293 293 293 294 294 294 294 295 295 294 295 296 297
318 319 319 319 319 318 319 311 312 316 315 312 316 320 322 323 324 316 310 299 294 305 306 301 313 305 318 307 311 308 308 302 309 311 311 310 312 306 304 301 303 298 301 301 300 300 300 301 302 300 300 300 299 299 300 299 297 295 298 301 300 299 299 299 298 296 291 290 295 297 290 289 298 297 299 293 294 294 293 294 294 294 294 294 295 295 295 295
318 319 319 319 319 319 311 307 317 316 309 311 319 322 322 323 321 314 300 295 291 304 302 309 307 307 316 309 309 310 295 300 306 309 308 309 305 311 301 300 300 301 302 303 300 296 300 298 300 301 300 299 298 296 300 299 297 295 298 300 300 299 298 298 298 297 294 300 298 294 295 289 289 296 297 296 294 293 292 293 294 294 294 294 295 295 295 295
318 319 319 320 319 317 314 316 316 311 311 314 317 323 322 323 318 313 300 286 286 310 303 301 306 312 311 308 312 304 302 304 300 302 305 306 306 304 302 301 299 299 300 300 291 303 300 298 299 299 299 298 297 300 303 302 298 298 297 300 299 299 299 299 297 295 296 293 289 293 296 288 288 295 295 295 293 293 293 293 293 294 294 295 295 295 295 295
318 319 319 319 319 318 320 318 316 312 318 314 319 321 320 319 314 304 297 285 306 302 315 302 312 308 305 308 305 304 301 302 299 300 305 305 306 303 299 301 303 302 301 301 296 301 300 300 301 301 299 296 301 299 301 302 297 298 299 300 299 299 298 299 295 294 294 290 286 292 294 288 289 296 293 294 294 295 295 294 294 294 294 295 295 295 295 295
318 318 319 319 319 317 317 319 317 320 316 316 317 318 317 312 305 294 290 282 307 297 304 303 302 300 304 300 301 301 298 299 300 301 303 301 303 305 302 305 302 301 299 301 300 299 297 297 298 300 299 301 297 295 296 300 299 300 301 299 297 297 296 295 295 293 290 285 287 293 295 292 286 295 296 293 295 297 299 296 295 295 295 295 295 295 295 294
318 318 318 318 314 315 316 311 316 315 315 314 316 314 311 306 296 289 283 294 306 300 301 300 298 304 299 298 296 300 301 298 298 300 297 301 299 302 302 300 304 299 298 297 296 300 298 298 299 300 299 299 300 295 297 296 300 301 297 296 295 292 294 292 290 292 285 284 291 294 294 294 284 291 298 300 299 300 299 295 294 294 294 294 295 295 294 294
318 318 319 318 319 319 311 309 317 313 311 312 312 309 305 292 298 288 287 303 292 298 298 297 301 300 299 302 300 296 296 297 299 299 297 296 296 296 297 295 297 290 291 292 292 299 295 296 300 298 299 300 298 297 294 296 296 298 296 295 289 288 287 284 287 283 284 285 287 289 292 290 289 294 299 298 298 298 300 299 296 295 294 295 295 295 294 294
318 318 318 318 318 317 318 320 316 313 311 311 309 307 300 291 282 293 295 298 293 302 298 303 299 300 300 299 298 297 301 295 299 299 302 300 298 298 301 300 301 299 292 296 294 292 295 299 299 299 297 298 301 294 291 290 293 294 293 291 288 286 284 281 285 287 287 287 287 288 292 286 293 295 300 300 298 299 299 300 299 296 295 295 295 294 293 293
318 318 316 317 319 319 320 318 317 314 310 308 306 301 297 286 285 297 297 298 299 300 302 300 299 301 301 296 299 298 294 299 298 298 300 298 298 296 298 300 302 300 298 297 292 292 289 288 294 296 293 300 299 299 298 297 293 294 298 295 291 290 286 281 285 283 284 286 284 289 286 286 286 291 295 295 293 295 296 296 299 298 297 296 295 294 293 293
317 318 318 318 317 320 320 317 314 313 310 306 302 295 286 286 292 293 295 299 298 300 297 302 299 298 297 299 298 299 300 293 298 297 296 296 294 296 296 297 301 302 301 292 297 294 293 294 299 301 301 299 297 301 304 300 294 296 298 299 293 290 294 287 287 286 285 285 283 283 286 292 293 294 295 293 293 293 293 295 297 296 296 296 294 293 292 292
316 316 318 314 314 318 320 316 314 314 309 302 297 290 287 292 290 298 297 305 300 298 297 299 300 295 296 296 297 297 301 297 297 297 296 297 299 296 301 301 299 301 298 293 298 291 294 292 297 297 298 298 299 301 301 302 289 294 295 289 293 298 295 287 285 285 284 285 283 288 287 291 297 294 293 293 292 291 292 293 295 296 295 295 293 293 293 292
313 316 311 314 315 320 319 317 315 312 307 301 294 287 293 297 303 301 304 302 301 301 298 293 294 295 294 294 295 295 297 299 296 296 293 298 294 298 299 301 304 301 302 300 296 301 291 294 291 295 292 295 295 298 301 298 301 295 289 293 297 300 297 291 285 286 284 282 285 288 286 288 288 287 293 292 291 291 291 291 294 295 295 293 293 293 293 293
313 313 312 313 316 320 319 317 314 310 304 298 291 293 299 296 303 303 308 305 302 302 298 295 297 300 296 296 294 295 297 295 295 295 294 296 293 303 299 299 303 302 302 303 296 298 300 291 292 295 296 295 296 297 296 299 298 296 294 302 292 287 285 291 287 281 281 281 284 287 288 289 291 291 290 292 292 292 291 291 291 292 293 293 294 294 293 293
313 311 305 313 320 320 317 316 313 306 299 293 291 291 297 300 303 305 306 304 304 301 297 299 297 299 299 296 298 297 294 291 296 293 292 295 291 301 299 301 299 302 302 301 297 298 301 291 290 291 294 294 294 295 287 292 296 297 297 295 300 294 290 288 288 288 288 283 283 284 286 285 293 295 295 295 294 295 292 290 290 292 293 294 294 294 293 293
309 305 303 316 320 319 317 315 308 303 297 289 291 293 301 299 303 307 308 305 302 301 299 300 301 298 298 299 300 294 296 297 295 294 295 297 295 302 299 302 301 300 301 301 298 303 295 298 288 288 293 294 287 292 291 293 289 289 290 291 293 290 293 293 293 289 287 285 285 285 284 288 295 299 298 297 297 296 294 292 292 292 293 294 295 294 294 294
311 305 306 318 319 318 315 309 301 296 295 296 297 295 299 299 302 305 307 307 305 308 304 302 301 298 299 297 298 300 295 294 295 293 294 296 296 292 301 301 303 299 301 299 298 299 291 293 289 288 287 287 292 296 296 298 296 292 291 290 292 289 287 284 283 293 288 286 284 284 283 289 295 294 297 298 299 298 297 295 294 294 294 294 295 296 295 294
305 296 303 317 318 316 307 298 298 301 297 293 292 297 297 304 303 304 305 306 306 303 307 304 305 302 301 299 301 298 296 293 294 294 296 295 300 299 302 304 302 303 298 293 295 301 299 295 292 288 288 290 294 294 295 294 293 296 295 293 296 294 292 288 283 286 287 288 287 286 283 287 294 295 295 295 295 298 299 297 296 295 295 295 296 296 296 296
303 301 307 317 317 313 304 296 299 297 295 297 301 302 304 303 302 305 303 304 301 305 304 301 302 302 304 301 300 298 298 293 295 294 297 296 299 302 303 302 304 301 301 297 299 294 293 287 288 289 293 293 292 295 295 294 295 293 293 294 295 291 293 291 290 289 287 287 285 286 282 287 292 295 292 292 293 293 296 299 298 297 296 296 296 296 296 295
302 300 303 312 317 312 301 291 291 294 296 298 299 298 303 302 302 301 302 303 301 302 300 301 302 304 302 305 300 297 300 291 296 296 295 300 297 298 300 301 302 297 299 296 295 297 290 289 290 287 286 287 289 291 291 293 292 290 291 293 294 296 295 292 289 290 287 288 287 286 282 288 291 290 291 292 292 291 292 295 298 297 297 296 296 296 296 295
299 301 301 303 309 310 298 300 295 294 295 295 295 294 297 299 303 303 303 302 304 303 302 299 302 303 301 303 300 300 300 297 292 298 299 297 297 293 297 299 302 298 300 296 297 301 293 291 289 285 282 281 280 281 283 284 286 289 291 293 294 293 293 288 286 288 284 287 288 286 286 293 293 293 292 292 292 293 294 294 295 298 298 296 296 296 295 295
297 289 297 300 302 299 300 299 300 296 294 294 293 294 297 296 301 304 305 302 304 304 303 303 304 304 300 297 294 294 296 300 296 290 293 293 294 292 292 295 294 297 296 296 297 298 290 291 291 290 289 288 289 289 293 294 289 286 288 290 292 293 293 292 290 288 285 288 287 288 289 291 289 292 292 293 292 293 293 293 292 293 296 297 296 295 295 295
301 293 292 290 299 298 295 298 297 298 293 296 289 294 293 296 298 299 304 298 303 302 300 300 299 297 295 296 294 294 296 295 294 290 291 294 293 292 294 294 295 295 293 293 297 293 290 289 290 290 289 291 290 291 293 294 290 290 288 288 291 290 290 288 287 286 290 287 284 290 293 288 290 292 293 293 294 292 295 295 294 293 294 295 295 295 294 294
294 296 297 300 294 289 291 292 296 297 298 297 293 297 294 294 295 292 298 302 303 303 297 296 297 298 298 296 297 291 294 293 293 290 293 293 289 291 291 293 292 293 292 293 296 293 288 287 290 291 289 292 293 292 293 292 293 292 292 290 289 290 289 286 287 290 291 287 285 291 292 288 292 293 294 295 296 295 296 296 296 295 295 294 294 293 292 292
299 297 298 301 294 294 295 297 297 296 295 296 293 294 292 293 292 296 297 296 298 297 299 291 294 297 298 299 297 292 293 288 288 292 290 289 289 289 287 289 291 291 292 290 291 289 290 288 290 292 289 290 292 291 290 290 290 290 291 292 292 290 289 289 289 290 290 288 291 293 293 292 295 296 295 297 299 299 297 296 294 293 293 292 292 292 292 292
292 294 291 296 295 293 295 296 295 295 292 295 290 291 293 293 293 297 299 296 290 295 300 295 296 298 298 299 298 293 294 296 294 290 292 291 288 290 288 291 288 288 289 289 291 292 291 287 289 289 287 287 289 289 289 289 287 286 290 291 292 291 290 290 289 289 289 289 291 292 289 289 296 298 298 296 294 295 294 292 293 293 293 292 292 291 291 291
297 298 301 293 290 291 292 293 292 292 290 292 290 291 293 294 293 297 296 297 296 294 297 295 297 298 297 297 297 296 299 297 297 295 294 293 289 291 291 289 292 286 288 288 288 288 289 286 287 287 285 285 287 286 286 287 286 285 286 288 289 288 285 288 286 289 288 286 289 289 287 288 294 297 294 292 292 292 292 293 292 292 292 292 291 291 291 291
297 297 298 297 288 293 290 290 292 291 286 290 292 292 292 293 296 297 292 294 294 296 298 298 298 297 293 294 294 297 297 294 292 292 292 292 296 294 296 294 294 290 287 288 289 288 288 287 284 285 283 284 283 286 286 284 285 282 284 287 290 290 290 289 290 290 290 290 286 285 287 293 294 292 291 289 289 288 290 291 292 292 292 292 291 291 291 291
Wind_Speed
0 1 1 1 2 3 3 3 4 4 4 5 6 6 6 7 8 7 8 8 9 9 10 11 11 12 12 12 13 12 13 6 5 3 2 4 3 6 6 4 4 5 4 5 5 5 3 1 1 1 2 3 2 1 1 1 3 3 4 3 4 2 4 5 3 4 5 5 6 4 2 2 4 4 5 2 6 6 6 5 6 8 10 7 5 4 5 6
1 1 2 2 2 3 3 4 4 4 4 5 5 6 6 7 7 7 8 9 10 10 11 11 12 12 12 12 12 12 10 5 5 1 5 4 5 6 5 3 2 3 3 5 4 3 5 2 0 2 3 2 1 2 2 1 2 3 2 3 1 1 5 2 4 4 3 4 3 3 1 2 2 3 3 6 5 6 5 7 7 8 8 7 7 6 7 7
2 1 2 2 2 3 3 3 4 4 4 4 5 6 7 7 7 8 8 10 11 12 12 12 12 12 12 12 11 11 7 4 4 2 4 7 4 6 4 2 2 1 4 6 3 5 4 3 2 4 1 1 1 2 3 3 4 2 4 3 3 4 5 4 1 4 5 3 3 2 2 3 2 2 4 5 7 6 5 4 8 8 6 5 6 7 7 7
3 2 2 2 2 2 3 3 3 4 4 5 5 6 7 8 8 9 10 11 12 12 12 13 13 13 12 12 10 9 6 6 3 5 4 7 6 5 3 2 2 4 5 2 2 2 1 1 2 5 2 3 3 2 2 3 4 2 4 3 5 4 3 4 2 4 3 2 1 0 1 5 3 2 5 6 8 9 8 8 6 6 5 5 6 6 6 6
3 3 2 2 3 3 4 4 4 4 5 5 6 6 7 8 9 9 10 11 12 12 12 13 13 13 12 11 12 6 6 7 3 3 6 7 7 4 2 3 4 6 6 1 3 1 3 3 2 2 5 0 1 3 3 2 3 4 4 4 4 3 1 6 2 4 3 2 2 0 4 2 3 5 6 6 7 2 4 5 6 6 6 5 5 5 4 5
4 3 4 3 3 4 4 5 5 4 5 5 5 6 6 7 8 9 10 11 12 12 12 13 13 13 13 12 8 5 4 2 2 3 6 7 4 4 3 2 5 7 3 3 3 0 3 3 4 3 3 4 1 3 4 2 3 3 4 2 1 2 2 4 3 3 1 1 3 4 2 2 5 6 4 5 4 5 4 3 4 4 4 4 3 4 4 5
5 5 4 4 4 4 5 4 4 5 5 4 5 5 6 7 8 9 10 11 11 12 12 12 12 13 13 12 5 4 5 2 3 3 3 6 4 4 1 2 5 3 4 4 2 3 1 3 5 1 3 4 1 1 3 1 2 5 1 3 3 1 2 2 1 4 3 4 4 3 3 7 5 9 4 4 6 6 5 4 4 4 4 2 3 4 4 5
7 6 5 5 5 5 5 5 5 5 5 5 5 6 6 6 8 9 10 11 11 11 12 12 11 12 11 4 4 3 3 1 5 2 3 4 1 3 3 2 2 2 4 4 3 3 2 5 4 1 5 5 4 2 3 4 4 4 3 3 3 1 3 2 3 4 5 6 5 2 6 9 7 4 3 4 5 4 5 4 3 3 3 3 4 4 4 5
8 7 7 6 6 5 5 6 6 5 5 5 5 6 6 7 7 9 9 10 11 11 11 11 11 11 8 5 3 5 4 4 3 4 2 1 1 1 3 3 4 4 2 2 2 3 4 1 3 2 4 2 2 2 2 4 4 1 3 1 2 4 3 4 5 7 7 4 4 5 9 8 3 1 6 4 5 5 4 3 3 3 2 3 4 5 5 5
9 9 8 7 7 6 6 5 6 6 5 6 6 6 6 7 8 9 10 11 11 11 11 11 10 12 6 4 2 6 2 3 2 2 2 1 2 1 3 4 3 4 4 2 3 4 4 3 3 2 4 2 1 1 2 4 2 2 1 3 6 5 4 5 7 5 4 6 6 8 8 6 3 5 4 4 6 6 4 3 3 1 2 4 4 4 4 5
11 11 10 9 8 7 6 6 6 6 6 6 6 6 6 7 8 9 10 11 11 10 10 9 8 9 3 3 6 7 2 2 2 3 2 0 1 4 2 1 2 4 4 1 3 1 3 2 0 1 3 1 4 3 3 3 1 1 3 6 9 9 7 6 6 7 4 6 7 8 6 4 6 3 2 7 7 6 5 4 3 2 2 2 3 3 3 3
11 12 12 11 10 9 7 6 6 7 7 7 6 6 7 8 8 10 10 11 10 9 8 7 7 4 5 5 7 2 2 3 0 3 3 1 1 3 3 3 3 4 5 4 3 0 2 2 3 3 2 1 3 2 3 1 1 1 4 6 3 6 9 9 7 5 5 3 4 4 4 7 9 8 8 7 7 6 5 4 4 3 3 2 2 2 1 2
12 12 13 12 11 10 9 7 7 7 8 7 7 7 7 8 9 10 10 11 8 9 5 6 6 4 3 7 2 2 2 2 2 3 3 4 5 3 2 2 2 3 3 6 2 2 1 1 3 5 2 4 2 2 4 3 1 3 6 6 8 9 11 8 4 4 5 3 5 5 6 9 14 8 8 7 7 6 5 5 4 3 3 2 2 2 3 2
10 12 13 12 12 12 10 8 8 8 8 8 8 8 8 9 10 10 10 10 10 7 6 6 4 4 3 5 3 1 1 2 3 4 5 4 4 3 3 2 2 1 2 2 5 2 1 1 2 3 2 3 0 3 5 3 4 5 1 3 7 6 3 8 5 6 6 6 7 5 7 2 10 8 7 6 7 8 7 6 4 3 3 3 2 1 2 3
12 11 13 12 12 10 9 5 7 8 8 8 8 7 8 9 10 10 9 10 6 5 5 7 5 3 6 1 3 4 3 2 4 5 2 3 5 5 4 4 5 4 4 4 3 1 1 2 3 5 2 2 3 4 6 6 5 5 4 6 6 6 3 7 6 6 5 4 7 8 6 8 9 8 7 5 7 7 7 6 4 4 3 3 3 2 2 2
11 11 13 13 12 8 7 4 6 9 8 9 7 7 8 9 10 8 8 7 7 8 5 4 4 3 5 8 3 3 3 5 6 5 1 2 2 3 6 6 5 5 4 4 2 2 2 2 2 3 4 3 6 5 5 5 6 6 7 8 8 5 3 6 7 3 1 4 8 10 8 2 8 9 6 5 6 8 8 6 5 4 4 4 3 3 2 4
11 11 12 11 12 9 6 6 6 9 10 9 10 11 8 6 7 7 6 6 4 4 4 2 4 2 6 3 3 5 6 3 3 3 3 0 3 6 7 7 5 6 6 6 3 4 3 4 2 3 5 6 5 5 5 7 7 7 7 7 7 7 4 6 6 4 4 6 7 10 9 11 5 10 9 6 7 8 7 7 6 5 4 3 2 3 3 3
11 12 11 11 14 11 8 7 7 10 10 9 9 6 5 4 6 7 7 5 3 3 4 2 3 2 8 4 6 2 6 6 4 4 3 1 4 7 5 5 5 7 7 7 3 6 4 3 3 6 4 7 6 7 7 8 5 6 4 5 7 8 10 10 5 7 4 6 7 8 11 13 6 10 10 9 7 8 7 6 6 5 5 4 3 3 3 2
12 12 11 15 16 11 9 8 7 9 11 8 8 5 3 5 5 5 3 3 4 3 4 7 6 8 5 5 6 7 3 3 4 4 5 7 2 3 2 2 7 8 6 6 5 8 4 3 3 6 9 9 10 11 10 11 11 9 8 7 7 7 6 6 4 7 5 7 8 10 12 11 10 10 9 8 9 8 7 5 4 5 3 3 3 3 3 2
13 13 15 16 13 11 9 8 7 11 8 7 5 4 3 3 4 3 5 6 10 10 3 1 13 2 6 6 5 4 4 3 5 2 6 2 7 7 6 6 5 6 6 7 6 8 4 8 8 9 11 10 12 14 14 10 3 3 4 8 9 10 11 6 5 4 4 4 11 13 14 15 14 10 11 10 8 7 7 7 6 5 4 4 3 3 3 3
13 14 15 13 10 9 10 9 9 10 8 8 6 5 5 8 7 6 7 10 15 13 11 6 6 5 3 7 6 9 6 5 2 5 5 3 4 9 7 7 7 7 9 8 6 3 3 9 11 14 11 10 10 12 12 7 6 8 9 9 9 9 10 8 1 5 2 5 9 9 11 13 13 12 10 9 9 10 10 9 8 7 6 4 5 4 4 3
14 13 13 13 13 12 12 10 10 9 9 6 6 7 5 5 4 2 4 6 11 16 13 10 3 5 4 3 6 2 4 4 5 7 2 6 8 10 9 9 10 9 8 6 4 3 8 12 12 12 7 4 3 4 5 7 9 9 8 8 8 9 9 7 6 6 4 3 9 11 15 14 13 15 10 11 10 8 8 7 6 7 7 5 5 5 5 4
14 15 15 14 14 13 12 10 10 9 5 6 7 11 7 6 5 4 3 6 10 9 13 11 10 14 8 5 5 2 8 11 9 11 11 8 10 10 8 10 10 9 9 11 10 8 9 11 16 8 4 4 4 5 6 8 8 8 7 8 10 6 5 6 6 1 4 5 4 4 8 11 13 7 10 9 9 7 5 4 4 3 6 7 7 6 6 6
16 16 16 15 13 14 12 11 9 7 9 10 11 10 3 3 5 6 4 5 6 6 9 10 13 11 14 8 9 11 11 8 10 11 10 10 11 7 8 12 12 11 10 14 15 13 12 2 1 10 6 8 9 7 8 8 9 9 11 10 8 9 8 8 4 2 3 9 8 9 11 13 13 15 8 6 4 4 5 5 5 5 4 4 4 4 5 7
16 16 16 15 13 15 12 7 5 6 7 10 14 12 7 5 4 5 4 6 8 8 4 0 2 7 7 6 10 11 11 9 9 4 13 14 10 7 9 7 8 12 12 13 14 15 16 3 3 6 7 8 8 7 10 8 9 9 12 13 12 10 11 10 6 5 8 9 8 7 6 9 8 14 13 8 6 8 8 9 10 10 9 7 8 9 6 5
17 17 16 15 14 16 13 6 7 8 10 11 6 6 11 7 6 3 3 5 11 4 5 8 10 6 10 8 10 7 5 11 3 4 11 5 1 5 5 8 7 11 13 13 12 9 5 6 6 8 7 8 9 9 9 10 9 9 6 8 12 11 11 10 10 1 7 6 3 2 8 8 1 4 7 7 7 9 7 10 10 10 10 9 9 9 8 8
18 17 17 15 16 16 10 6 6 10 9 10 11 7 5 6 2 4 3 5 14 8 11 3 8 1 3 11 14 10 6 8 5 5 9 2 9 1 8 8 5 2 4 4 0 8 6 5 5 4 7 8 8 9 9 10 8 9 4 0 3 5 8 9 8 9 9 7 4 5 6 9 10 5 5 5 7 8 8 9 9 9 9 10 9 9 9 9
19 18 18 17 19 17 6 4 8 10 8 2 5 6 4 4 1 3 3 6 7 10 7 3 0 4 2 6 10 13 4 10 7 5 5 2 1 4 7 12 10 10 8 7 12 3 8 9 9 9 9 8 11 10 5 12 9 2 2 1 2 3 6 6 6 7 7 5 8 7 8 4 9 4 7 9 7 9 10 11 11 10 10 11 10 10 10 9
20 19 19 17 18 18 7 6 8 10 4 2 2 2 3 4 6 4 4 10 3 3 4 6 3 4 7 8 7 3 5 3 2 5 1 3 5 2 9 13 9 8 12 13 12 2 3 1 6 11 8 10 5 6 2 9 11 3 4 6 5 2 2 3 5 6 6 6 12 8 10 7 12 6 6 5 5 9 10 12 13 13 13 12 11 11 11 9
21 21 20 18 15 15 9 1 6 3 5 2 3 4 5 4 4 6 5 12 6 5 5 4 6 10 12 13 11 4 2 2 4 5 6 5 7 2 4 5 3 6 7 9 8 3 2 2 3 2 8 3 6 6 6 4 4 9 6 5 4 3 3 2 4 4 4 12 11 9 12 10 9 4 7 7 7 9 7 9 10 12 13 13 12 13 11 10
22 22 21 20 16 9 6 8 9 5 5 2 4 6 5 2 5 7 13 10 6 4 3 8 6 11 15 16 10 9 6 4 7 10 7 4 7 7 4 4 4 4 3 6 9 6 4 3 3 2 5 4 6 6 5 2 4 8 4 5 4 2 3 4 3 4 7 13 4 8 13 14 10 3 5 4 5 5 10 13 15 17 16 15 13 13 12 11
22 22 22 18 11 8 14 11 10 8 6 3 6 7 7 6 4 10 11 12 6 9 12 9 8 11 16 10 3 11 11 7 9 10 10 10 10 12 13 12 11 7 9 11 10 5 8 8 4 5 3 7 6 6 3 3 2 6 7 7 6 3 3 6 5 8 11 9 3 2 5 6 17 14 2 7 4 7 6 9 15 18 17 16 15 15 12 11
23 23 23 17 14 10 8 7 11 9 8 6 4 5 5 7 12 15 13 10 5 7 4 9 13 15 15 11 7 9 5 9 10 10 9 9 10 11 13 13 12 10 5 8 10 4 4 6 11 7 3 8 10 10 7 3 9 10 11 9 7 8 9 7 8 6 6 2 1 3 2 8 6 9 18 13 7 4 6 4 13 17 19 18 16 14 12 11
25 22 15 16 15 11 8 11 11 13 11 5 6 6 5 8 17 17 14 12 4 4 9 6 12 8 13 10 9 13 6 5 12 8 10 9 10 10 11 16 14 13 2 3 9 8 7 4 11 12 8 14 14 15 12 6 12 13 10 11 9 7 4 8 7 9 5 1 3 2 4 5 6 3 6 7 4 5 3 3 7 14 15 15 14 12 12 12
26 21 17 12 13 13 11 11 13 15 11 9 8 12 15 15 16 12 16 11 4 5 5 11 12 11 10 7 4 12 4 5 10 9 9 10 12 11 13 14 16 11 8 5 7 3 13 9 5 15 3 18 14 11 7 8 7 9 9 7 10 12 4 10 2 3 1 0 3 5 6 3 5 5 5 3 5 4 4 4 7 13 13 14 13 13 12 12
18 11 15 10 14 14 13 11 15 17 13 10 11 14 18 20 13 10 8 13 7 9 11 10 8 9 9 8 5 13 3 0 12 8 8 12 9 11 12 8 14 20 13 12 6 6 2 8 8 5 2 14 13 7 7 10 7 9 8 10 9 6 3 1 1 2 0 2 10 6 5 7 4 5 7 6 5 6 5 7 9 13 15 15 13 13 13 13
13 12 12 14 13 15 15 14 14 14 12 13 14 17 18 12 4 5 7 16 12 18 12 10 10 11 11 11 8 12 9 3 10 9 7 8 9 13 11 13 12 18 18 10 4 4 3 1 1 8 6 2 4 5 4 4 2 9 8 9 5 2 5 2 6 2 3 10 7 8 10 8 7 7 8 8 7 8 8 9 11 13 14 15 13 14 14 14
13 9 14 15 15 16 15 16 17 12 10 12 18 18 8 12 10 8 6 9 13 15 9 13 7 14 11 11 11 13 11 11 12 10 7 13 6 13 16 7 13 17 20 12 5 2 6 9 6 3 3 4 1 3 2 2 4 3 2 5 9 7 6 8 2 9 7 9 7 8 12 12 11 8 5 9 10 11 11 11 11 14 15 15 14 15 14 13
11 9 8 18 14 18 15 16 16 13 12 11 13 17 15 14 12 10 5 8 9 14 15 14 11 10 11 10 9 13 15 11 13 11 8 10 9 11 16 12 10 16 15 13 6 4 4 8 2 2 2 5 5 8 10 10 5 2 1 5 3 3 5 8 9 3 3 10 5 7 7 8 10 10 13 14 13 12 13 12 14 16 17 16 15 16 17 16
8 5 12 12 19 20 18 16 10 10 12 18 11 17 7 8 11 9 8 9 9 13 13 13 17 10 15 14 12 9 11 10 14 11 11 8 9 10 13 14 9 13 17 18 8 6 6 5 9 5 2 8 6 10 12 14 13 8 6 9 5 4 3 4 4 7 5 6 8 10 10 4 5 9 12 12 13 13 16 15 13 13 15 16 17 17 17 17
8 3 2 17 23 19 17 12 11 16 15 13 14 14 12 10 12 10 12 14 10 5 5 12 12 14 9 12 14 12 8 9 8 8 9 8 12 4 11 13 11 9 10 9 10 5 3 8 11 6 5 9 6 6 10 6 12 13 14 16 16 12 8 8 9 5 4 3 6 5 12 2 3 4 1 4 8 11 13 14 13 14 15 16 15 16 16 16
6 6 6 18 23 25 18 17 10 11 10 17 20 17 10 9 11 13 12 12 7 9 2 3 11 14 11 13 11 8 8 7 10 9 8 11 13 13 5 15 12 15 15 10 15 12 6 2 6 6 8 8 5 4 3 1 5 5 9 10 11 10 8 8 10 6 1 5 3 2 6 6 3 3 4 5 6 3 9 11 11 12 15 15 15 16 16 16
9 12 4 18 26 25 15 13 13 13 14 17 14 10 4 8 13 11 14 13 12 6 4 8 12 12 9 7 10 9 15 8 12 12 12 10 10 8 5 11 13 14 7 2 5 2 9 2 5 5 4 3 4 4 2 2 1 7 8 6 6 15 15 10 5 1 6 3 3 5 9 3 3 4 3 4 3 3 2 7 9 9 11 13 14 14 16 14
2 2 1 4 22 22 20 17 14 15 14 14 15 16 11 8 10 12 14 16 12 9 11 8 0 10 5 6 5 10 14 7 11 13 9 10 7 6 4 6 16 9 12 7 7 11 7 6 6 6 4 3 4 4 3 2 4 8 10 12 10 7 9 1 3 0 3 9 7 7 15 2 2 1 1 1 2 1 3 3 7 9 10 11 12 12 12 11
2 2 1 2 7 16 18 14 16 17 16 16 15 20 15 10 9 14 11 13 9 9 8 11 10 6 6 2 10 7 13 20 4 10 8 3 4 3 1 6 7 4 2 3 6 9 6 6 11 12 16 14 11 12 14 13 15 8 7 11 13 13 11 5 8 7 10 6 8 10 13 1 3 1 2 2 2 3 3 5 4 5 8 10 11 12 12 12
3 3 2 2 3 4 3 3 8 14 15 14 14 18 18 14 6 11 12 13 12 9 9 1 4 9 8 6 7 11 11 10 10 4 7 7 3 0 2 4 2 4 2 5 6 9 2 1 11 15 13 13 6 2 5 10 9 11 15 16 16 16 14 9 4 7 14 3 10 17 11 5 4 6 6 6 6 7 7 6 7 6 6 8 10 10 11 11
0 5 5 3 2 5 0 1 4 12 15 16 12 10 17 20 13 3 10 10 13 13 7 4 4 10 7 12 15 14 12 12 2 2 10 8 3 2 2 2 1 2 4 4 5 4 1 5 15 16 14 11 6 1 3 6 12 15 11 16 16 13 16 15 14 18 4 2 16 11 7 12 10 9 9 7 7 5 4 5 6 7 8 9 9 9 10 9
7 2 6 2 3 4 9 10 6 12 15 17 12 7 18 20 18 10 5 11 7 12 10 1 6 15 18 19 15 10 10 12 10 10 5 1 6 3 3 1 3 2 3 4 1 5 5 8 10 11 18 15 2 2 2 2 3 4 16 17 18 19 15 19 22 19 10 14 19 8 12 14 13 11 11 10 8 9 10 9 6 5 6 7 9 10 12 12
1 2 1 2 5 1 7 2 5 8 13 14 9 14 12 17 20 20 10 8 8 6 15 9 15 18 14 12 12 9 11 7 10 11 7 7 8 7 3 2 4 4 3 2 4 1 2 10 7 8 15 12 13 7 3 3 2 2 5 11 15 17 22 22 20 18 17 15 16 8 6 11 7 9 12 10 6 4 3 5 5 6 7 8 9 9 11 12
7 7 3 1 1 2 2 2 3 5 11 13 11 14 15 17 22 17 9 10 8 15 14 18 20 15 16 15 13 11 14 18 12 11 9 11 5 6 8 7 4 3 3 7 7 3 7 5 9 4 5 11 11 5 3 3 2 3 6 7 11 12 13 14 14 13 12 16 20 8 7 11 5 2 6 5 5 5 4 4 4 4 7 8 9 10 10 11
3 2 4 8 7 4 3 2 5 8 7 7 11 11 12 18 20 18 10 2 14 11 12 23 24 16 10 13 14 15 13 10 10 9 10 16 13 10 10 3 10 9 9 5 3 2 6 4 3 2 8 10 6 8 4 2 1 6 12 18 14 7 8 10 12 13 14 18 19 12 13 14 4 6 5 3 4 5 6 5 4 5 6 8 9 10 11 12
0 2 2 7 4 5 7 3 7 4 10 8 10 13 10 18 15 9 8 2 1 3 5 13 14 10 10 11 18 18 4 4 5 7 3 2 4 6 3 4 12 14 11 10 3 7 8 6 6 7 9 10 1 6 7 6 2 6 23 21 12 11 10 6 10 12 14 11 8 12 18 6 4 5 6 3 5 4 4 4 4 4 7 9 10 10 10 10
Wind_Direction
224 324 330 354 351 340 356 12 11 3 6 7 4 1 359 0 359 356 347 341 338 339 339 339 339 337 336 336 335 333 321 297 278 275 259 67 355 353 337 318 305 289 249 277 255 255 238 232 248 313 232 247 38 261 39 307 345 251 233 241 214 64 203 125 212 153 71 143 128 144 49 285 248 155 137 231 225 232 265 129 96 83 72 73 83 41 24 15
232 319 340 340 347 353 347 356 3 2 2 10 5 357 357 354 349 346 344 341 338 340 342 341 337 336 333 332 332 331 321 285 297 308 45 24 10 351 345 335 305 251 272 257 288 298 282 203 348 272 224 156 254 52 239 98 286 285 265 250 25 103 68 30 67 84 204 110 105 105 73 309 314 346 90 285 191 191 258 134 140 106 102 96 66 43 32 25
243 265 328 317 341 342 334 329 344 345 358 5 359 359 351 348 344 344 345 344 342 342 338 336 334 330 330 329 328 321 310 273 251 127 65 25 0 352 357 359 285 237 262 319 348 311 322 4 345 281 329 192 352 74 253 58 294 62 292 238 97 64 99 72 109 106 45 77 148 177 115 276 332 286 357 267 297 281 266 138 168 137 101 64 52 39 24 31
235 268 289 312 309 325 317 322 330 334 346 358 351 357 352 347 345 343 344 344 338 336 332 331 330 330 325 320 327 311 267 296 249 90 67 10 3 349 2 352 333 253 263 280 323 306 319 251 276 278 240 256 121 236 242 48 283 77 260 340 101 121 147 142 111 73 78 14 31 318 65 268 243 300 311 305 296 252 104 46 22 36 42 49 47 36 22 28
245 251 279 289 300 299 321 316 322 327 340 348 350 348 351 347 342 339 342 337 335 329 330 327 327 324 321 315 308 275 306 278 91 70 25 5 354 12 21 338 297 282 275 197 214 212 257 282 252 276 275 195 138 210 67 81 11 284 30 50 90 123 235 114 107 61 65 40 295 154 250 286 70 276 261 274 260 7 48 23 15 34 38 38 27 28 27 29
251 257 273 284 288 298 312 319 317 320 324 339 338 343 340 341 340 335 336 335 326 326 325 328 323 321 318 314 299 252 281 315 122 123 355 357 1 49 29 315 283 274 206 228 281 323 254 204 245 222 231 267 104 299 83 34 346 257 134 103 16 43 343 119 143 101 267 209 231 241 283 344 259 269 245 264 296 72 51 49 62 63 52 59 44 28 38 34
248 260 264 279 283 291 298 306 311 314 311 321 329 327 328 333 333 334 329 326 321 322 326 323 322 317 315 306 252 267 277 323 161 90 11 350 33 54 352 241 247 257 261 260 241 254 217 255 255 299 278 259 188 273 83 353 235 291 71 129 140 77 266 113 149 138 211 233 244 295 1 271 252 256 130 225 84 89 83 76 84 77 88 79 70 56 50 47
247 253 261 261 282 285 286 290 298 299 300 305 315 316 321 327 332 326 326 320 318 320 322 321 320 315 325 268 264 234 233 206 76 104 43 322 180 138 263 247 250 263 258 286 296 264 274 247 270 53 258 308 72 260 96 251 223 255 228 161 110 268 245 183 206 208 219 232 254 237 259 253 233 265 161 187 112 116 111 116 90 106 108 87 67 55 50 47
245 250 256 252 271 278 280 284 286 286 289 300 298 303 316 324 323 321 320 317 316 315 316 319 317 321 293 276 267 300 259 59 24 51 88 136 102 115 275 201 203 241 258 246 271 297 264 179 267 265 356 262 134 263 186 291 183 338 50 151 175 228 224 226 238 235 227 232 213 222 242 243 220 111 227 123 133 127 134 122 130 125 107 84 64 49 39 37
248 248 251 250 254 259 267 275 274 278 282 289 296 301 308 313 318 313 318 313 312 317 313 315 326 316 299 243 233 260 76 290 70 71 52 50 135 184 229 320 216 225 231 184 240 233 239 6 339 76 303 285 215 353 56 254 21 331 31 277 270 269 239 225 243 250 202 237 193 228 255 196 159 203 196 142 139 144 151 138 124 141 79 59 48 45 36 33
244 242 246 248 249 253 261 265 272 269 276 280 286 289 301 304 311 312 312 312 313 312 318 313 325 317 268 240 254 262 79 258 45 99 89 323 167 206 214 240 269 248 259 182 254 305 0 267 69 156 247 56 170 149 256 52 22 347 317 283 252 246 236 221 226 253 231 234 214 231 247 122 169 214 285 142 146 159 168 149 142 140 103 85 71 51 42 32
239 243 244 246 247 248 256 262 264 266 265 276 281 287 300 303 306 309 308 310 307 313 316 324 311 296 274 263 241 279 329 35 157 119 124 219 88 31 10 337 319 310 269 250 187 34 341 347 228 222 344 96 218 108 171 114 305 354 293 287 272 233 242 204 229 189 202 209 182 198 215 217 179 223 127 132 148 165 181 167 166 149 143 132 123 115 104 63
236 241 244 245 247 242 244 256 259 261 264 270 275 285 297 299 302 304 307 303 309 309 310 317 298 261 286 249 233 60 296 111 113 118 124 110 102 79 62 29 331 321 342 301 139 91 0 258 254 243 27 283 329 297 89 228 144 283 237 274 289 261 246 165 146 162 209 118 177 182 248 225 197 160 133 136 165 175 186 201 181 167 159 137 131 136 106 74
231 239 245 244 248 244 237 243 264 261 264 262 270 283 295 298 300 304 301 294 302 310 294 298 299 261 247 263 88 31 57 102 142 155 129 153 173 95 122 107 57 29 344 56 65 61 124 290 274 69 51 321 240 131 192 184 214 256 132 228 267 272 255 142 174 152 210 132 178 229 250 334 142 133 137 153 168 183 199 191 182 178 164 155 155 149 123 111
236 234 244 247 256 255 228 229 259 263 255 257 264 289 291 297 305 300 291 287 259 297 292 287 249 240 222 248 102 93 323 283 198 157 127 207 162 140 143 124 86 78 77 77 99 65 190 165 184 210 155 51 124 197 243 242 216 230 259 243 206 241 137 148 150 184 227 150 200 212 254 272 158 159 144 150 182 198 219 197 188 181 179 167 163 160 166 115
227 235 241 247 258 235 197 199 249 256 248 250 272 290 296 302 299 286 283 290 303 284 266 249 176 276 305 251 102 167 217 204 184 92 141 307 272 232 119 112 116 114 120 70 93 138 155 185 272 5 111 146 220 230 260 251 234 214 235 266 266 228 232 185 167 164 232 136 177 205 272 82 169 148 142 154 176 197 217 203 196 186 185 190 174 171 160 157
221 228 239 240 243 223 207 198 224 251 253 260 285 280 266 281 285 276 279 288 270 222 248 300 159 176 259 69 117 222 204 144 61 154 146 84 297 145 149 149 143 119 110 124 134 174 133 202 115 229 235 246 227 230 244 246 258 233 203 259 263 256 247 258 112 200 159 216 216 206 242 261 108 160 158 162 184 194 211 205 199 194 192 182 180 182 180 177
219 222 234 242 247 226 203 195 217 244 253 262 263 297 289 279 285 290 245 236 234 252 223 286 240 245 228 113 226 171 66 119 158 123 107 95 271 172 175 165 137 144 145 137 163 211 170 203 174 253 192 215 215 209 216 238 238 267 203 236 254 232 239 269 255 138 203 180 258 243 237 258 180 160 171 170 187 200 212 205 200 197 192 186 196 190 182 171
210 218 226 239 245 219 197 192 212 242 249 265 268 243 274 276 267 249 247 184 192 165 209 182 186 203 286 160 105 102 74 91 113 178 153 162 167 160 134 131 176 155 182 207 162 206 169 216 193 236 234 210 207 210 223 239 277 288 293 289 289 278 246 247 227 109 227 228 239 246 257 254 244 165 169 169 181 200 206 185 194 204 194 195 197 192 179 180
202 213 224 238 234 209 189 196 216 236 255 259 225 222 215 208 194 186 198 216 230 226 15 138 199 19 104 149 139 58 160 206 156 141 130 133 156 173 163 173 153 232 210 212 150 202 170 208 211 217 228 224 220 221 231 262 322 308 293 274 270 273 270 271 140 115 113 272 253 261 261 260 262 229 175 173 170 197 198 197 199 201 196 194 198 184 179 163
198 210 221 229 232 208 185 201 220 244 245 262 232 227 216 208 203 229 168 215 221 238 254 243 224 257 311 99 118 161 139 173 307 156 157 165 213 172 174 176 179 204 212 227 196 92 198 228 230 233 239 252 238 224 237 247 264 269 274 267 264 249 264 277 281 121 168 242 268 264 263 260 261 265 168 162 178 200 201 204 201 193 191 189 188 177 176 135
200 205 218 223 227 213 196 199 218 235 248 254 227 231 305 358 348 330 318 255 204 226 236 240 42 247 132 128 156 241 280 164 190 161 157 206 168 207 163 198 192 220 170 142 124 171 206 223 234 238 240 97 39 229 240 246 252 248 253 258 259 255 265 258 154 146 150 226 267 265 265 262 256 260 166 179 190 199 194 202 197 187 183 186 181 173 159 147
197 202 217 214 220 212 196 202 212 226 233 221 218 239 271 351 318 324 294 275 280 201 215 215 219 230 203 139 172 205 202 208 207 172 173 204 168 229 170 195 205 221 163 190 211 213 236 235 234 237 151 189 186 214 230 240 244 246 232 234 243 265 254 266 129 190 186 225 313 355 296 275 268 246 170 188 196 160 134 140 137 170 182 187 182 173 166 157
194 201 212 215 208 204 192 195 212 232 231 227 232 231 31 332 327 307 270 258 284 191 208 206 219 213 208 186 170 182 207 223 232 186 162 181 187 184 213 206 218 215 210 202 216 228 230 28 39 182 193 212 230 203 212 223 240 221 233 246 250 242 238 243 292 139 182 237 244 271 273 270 251 241 182 162 128 148 167 169 179 185 187 148 128 143 167 159
194 204 208 212 200 179 185 170 220 225 216 229 242 247 259 269 300 332 294 279 236 227 96 130 162 231 191 51 141 185 213 247 231 129 169 188 173 148 219 208 232 230 221 215 225 239 248 156 151 171 191 212 221 214 205 223 244 245 220 223 247 258 268 271 272 318 285 283 189 215 294 273 251 231 211 144 175 203 179 186 193 184 183 176 180 173 156 137
196 203 206 207 182 171 162 176 217 210 213 222 232 243 243 250 264 294 273 249 276 189 104 227 147 214 123 166 145 184 80 230 145 135 160 211 335 220 123 217 199 235 220 221 228 242 256 119 193 175 174 204 213 231 216 201 247 255 268 200 234 256 271 271 270 235 274 265 77 215 243 280 103 222 154 155 188 196 172 206 190 181 180 179 177 170 169 163
198 202 206 199 174 162 162 215 169 188 216 245 234 231 234 223 209 287 233 236 269 154 171 65 188 209 311 152 156 140 224 205 111 106 163 26 186 319 220 200 163 266 330 185 324 235 144 175 162 176 201 207 218 228 214 198 232 249 56 9 174 250 248 248 246 241 257 301 178 194 244 274 280 259 139 159 196 193 196 206 196 185 180 176 172 167 164 162
197 201 204 198 183 176 190 157 166 193 203 64 319 207 182 193 162 248 232 275 260 121 151 189 103 1 257 145 177 181 29 108 152 185 14 56 305 163 223 218 196 201 183 170 229 72 180 175 184 199 204 212 226 237 189 190 219 268 91 76 191 253 263 249 245 245 256 294 266 194 193 258 261 223 146 168 196 202 210 198 195 187 183 175 173 165 162 158
196 200 203 199 190 191 215 212 187 202 184 98 55 220 130 152 224 235 225 247 115 100 358 120 246 140 93 160 171 109 153 344 280 59 259 60 332 290 203 233 244 234 187 200 238 164 19 160 204 209 199 222 180 65 82 182 226 129 126 83 82 110 98 232 232 244 249 245 250 227 183 246 266 226 176 176 242 231 207 187 187 184 179 176 173 165 162 154
195 199 200 193 188 196 210 243 217 111 80 101 132 171 139 167 183 202 172 250 146 204 123 105 184 175 153 157 190 159 157 99 48 144 153 175 184 252 11 337 245 210 199 222 262 21 104 156 12 252 222 249 89 66 37 34 62 131 144 132 122 141 171 180 236 245 268 245 247 225 208 212 281 245 203 173 212 215 175 165 173 174 174 175 175 167 164 160
196 196 196 187 196 184 162 207 184 98 102 96 161 158 149 219 215 187 221 229 41 85 101 161 135 137 158 159 187 192 199 120 146 146 140 156 154 218 177 167 229 236 224 233 245 211 173 118 178 200 69 98 118 85 53 16 143 163 159 182 165 182 181 215 211 213 244 262 230 202 219 199 232 223 228 166 107 185 170 169 171 175 175 175 174 171 167 161
197 196 194 192 190 155 192 194 154 121 118 146 173 167 181 171 302 204 227 75 261 172 172 157 145 171 177 181 122 167 173 158 160 183 168 179 171 185 192 199 160 189 230 213 233 151 224 205 171 110 280 174 156 157 88 130 178 212 185 182 191 219 153 223 184 216 216 250 106 53 104 211 235 242 298 114 151 133 176 173 174 173 172 173 173 170 164 160
195 194 193 196 184 201 197 129 128 133 121 115 183 199 199 174 213 216 226 143 236 121 144 140 168 179 179 173 190 149 155 185 167 191 179 185 194 206 205 215 182 201 265 185 206 153 243 179 189 179 124 220 188 185 157 183 194 190 194 184 190 225 224 243 221 227 250 112 294 91 208 252 293 259 234 236 120 105 106 146 168 168 171 172 169 164 158 158
195 189 192 196 197 193 171 145 150 139 136 136 184 174 234 204 230 215 207 210 218 27 108 139 143 161 175 183 180 157 157 200 162 176 183 179 203 206 202 217 214 211 244 162 198 188 234 216 214 160 222 166 203 211 189 187 167 199 198 194 203 208 222 229 218 222 231 259 102 244 138 234 166 211 44 73 82 88 84 52 159 165 165 161 158 152 149 156
192 191 195 193 197 198 177 150 145 142 128 153 183 183 189 222 233 200 205 187 134 144 117 139 143 155 190 208 114 184 193 159 194 159 191 192 202 211 198 200 205 218 197 222 216 179 225 256 121 175 40 154 194 209 232 170 164 193 200 220 229 227 251 259 4 329 37 164 188 176 225 244 211 96 104 111 123 131 124 128 148 158 158 154 156 160 161 166
189 194 191 194 198 187 169 158 152 143 151 176 179 193 206 203 217 183 215 184 154 158 137 143 151 180 189 198 151 190 193 199 174 181 205 212 221 213 212 201 193 194 191 203 153 212 161 237 117 117 160 178 188 164 177 165 208 171 172 214 204 19 282 31 154 107 121 310 256 155 242 242 302 193 157 164 151 144 141 152 168 161 164 160 165 165 167 171
193 187 202 197 199 172 170 161 157 149 166 188 192 201 211 225 225 173 178 195 176 130 148 163 199 190 187 199 184 189 178 129 164 183 205 171 247 231 212 212 196 195 211 194 211 233 219 172 22 161 193 79 20 330 191 24 359 116 213 202 75 33 1 251 253 178 215 254 264 163 217 225 177 246 137 157 182 166 168 171 172 165 167 170 172 171 172 175
189 199 212 206 180 167 165 163 154 156 171 205 209 218 211 229 213 226 200 167 140 153 181 206 197 189 201 188 188 172 173 191 173 182 219 161 260 173 195 202 199 203 203 214 257 197 191 259 164 209 90 103 22 109 208 198 342 244 251 114 153 207 222 213 235 251 242 238 261 218 217 232 212 209 139 187 189 182 179 170 174 175 179 182 176 174 172 169
191 190 217 209 165 156 164 163 166 157 175 212 206 221 225 232 210 214 184 176 170 168 206 203 211 193 207 200 185 163 161 196 159 186 187 191 228 174 185 175 200 205 200 191 219 226 183 233 178 318 160 138 162 185 204 188 181 307 224 219 234 339 227 189 202 275 248 254 239 261 160 248 193 224 174 187 192 182 166 172 190 186 182 182 179 175 175 176
187 171 230 158 155 164 156 162 171 174 180 213 197 230 207 235 207 206 221 207 187 192 208 216 211 218 203 222 173 155 191 199 165 192 206 168 207 150 190 181 198 189 196 191 203 183 222 163 260 111 311 140 197 194 212 181 183 184 204 213 172 214 26 325 261 218 224 255 248 273 264 241 193 197 187 190 185 173 170 182 186 186 186 185 181 177 179 179
200 233 284 145 159 150 152 171 192 190 196 217 229 239 238 225 215 210 215 223 241 248 264 221 208 214 194 198 216 163 162 194 193 195 196 202 190 205 190 183 191 171 173 190 214 189 201 180 223 138 185 206 221 185 215 219 199 194 190 202 193 179 191 207 242 187 238 226 250 249 260 293 107 19 27 182 174 167 178 173 175 185 185 185 185 185 181 180
211 224 213 162 147 151 158 186 193 181 197 204 212 208 216 214 245 218 198 212 250 235 194 285 235 228 203 196 200 161 149 185 202 206 203 222 196 229 142 187 184 149 156 178 202 195 201 192 214 200 205 208 199 52 22 37 357 259 219 221 206 216 200 203 225 192 142 236 28 292 321 266 68 28 41 48 38 85 162 167 173 180 183 185 190 188 184 181
197 215 7 167 154 155 172 204 179 190 196 214 219 238 258 214 221 216 200 192 216 216 228 218 222 222 227 201 186 179 174 208 184 208 210 213 226 206 132 183 162 162 154 137 86 317 69 192 199 228 94 93 113 127 88 28 279 267 256 257 221 210 201 218 242 81 198 174 199 232 245 279 48 24 34 39 43 2 11 172 168 167 177 186 184 183 183 178
198 129 169 241 170 160 180 196 189 197 207 210 204 222 213 231 203 204 208 189 197 175 216 213 256 232 243 163 160 193 171 235 201 201 215 195 206 63 154 150 163 170 179 199 179 164 164 213 183 197 232 204 180 151 201 145 198 231 221 206 225 233 217 167 65 59 265 214 193 209 250 203 172 35 0 21 148 145 207 192 181 169 173 177 181 182 181 167
77 351 299 265 218 183 193 189 193 196 202 198 192 213 216 224 220 214 199 206 190 212 193 219 208 159 213 204 212 207 193 207 214 212 214 195 205 36 21 191 171 186 118 12 35 163 193 160 169 203 215 218 212 210 207 192 202 201 218 223 201 207 198 141 222 211 240 216 171 224 244 156 102 121 278 206 204 210 182 191 189 196 175 166 176 176 177 166
201 201 271 253 184 7 310 16 189 193 200 198 200 215 214 223 204 216 199 216 199 207 216 94 216 193 192 156 194 208 215 222 212 198 182 207 144 60 20 310 183 189 92 138 146 142 198 177 199 205 207 218 233 28 350 103 107 188 201 196 202 198 210 213 240 227 229 205 202 227 230 252 187 199 223 216 207 209 190 189 190 189 186 174 172 174 176 176
253 199 158 218 355 251 217 93 192 183 209 187 209 189 209 218 213 168 199 219 203 206 205 153 180 181 206 196 208 217 210 207 133 111 205 180 66 96 50 47 180 356 132 125 202 151 207 217 217 221 233 240 88 124 345 165 185 206 191 204 203 197 200 203 206 221 116 147 250 229 159 236 224 189 210 203 202 218 213 186 192 196 191 181 175 173 174 164
206 216 163 250 162 218 217 236 211 212 204 189 216 191 210 212 212 212 187 229 187 195 197 248 222 219 199 197 193 210 181 210 181 213 161 86 116 129 93 50 197 132 148 167 290 187 186 225 220 204 238 237 209 181 218 257 266 227 207 199 193 202 198 204 219 224 185 215 238 227 167 218 225 186 197 200 187 200 207 204 186 163 155 159 161 171 180 182
77 89 163 261 197 238 226 244 175 222 209 197 213 221 213 213 214 214 196 184 208 195 197 218 215 213 214 205 197 202 184 189 217 216 180 173 171 143 150 43 254 135 173 149 189 236 110 241 222 196 233 236 233 210 149 222 243 274 241 216 204 199 206 207 219 218 218 235 245 256 216 233 234 208 187 195 186 182 114 84 90 130 156 160 170 179 187 189
186 155 195 343 46 116 70 131 173 209 226 197 208 213 216 215 219 215 200 179 198 218 196 221 227 206 208 210 207 211 203 208 195 197 187 160 180 189 195 186 134 92 162 186 170 244 176 247 148 124 228 236 223 152 182 187 171 261 266 253 234 219 213 215 224 230 235 251 253 252 281 263 220 204 170 67 70 80 83 132 170 168 161 168 179 187 191 196
340 341 138 147 192 205 161 144 202 222 230 210 216 222 217 219 223 213 206 185 215 205 188 216 224 218 209 219 224 231 225 220 222 208 174 165 194 197 176 218 149 155 175 170 157 189 178 240 57 130 220 240 211 181 198 172 21 257 266 250 225 170 159 200 210 215 212 225 237 245 250 249 141 150 56 61 98 150 186 187 170 174 175 176 188 195 195 200
100 272 290 133 173 177 187 188 213 197 229 215 212 215 208 222 224 196 229 228 141 277 238 229 233 216 221 214 222 227 205 89 97 68 108 69 61 99 126 145 165 164 173 188 147 171 192 167 165 183 216 220 52 185 172 137 117 287 241 225 193 194 206 204 226 221 221 222 232 233 238 239 189 159 173 213 188 198 199 198 199 168 184 190 197 200 202 202